Gage, OK

11:18 AM CST on February 19, 2017 (GMT -0600)
Gage

Weather History for KGAG - October, 2012

Change the Weather History Date:

Tuesday, October 9, 2012

  Actual Average Record
Temperature  
Mean Temperature 60 °F -  
Max Temperature 75 °F 73 °F 95 °F (1965)
Min Temperature 46 °F 44 °F 21 °F (2000)
Degree Days  
Heating Degree Days 6    
Growing Degree Days 10 (Base 50)    
Moisture  
Dew Point 40 °F    
Average Humidity 55    
Maximum Humidity 86    
Minimum Humidity 24    
Precipitation  
Precipitation 0.00 in - - ()
Sea Level Pressure  
Sea Level Pressure 29.90 in    
Wind  
Wind Speed 16 mph (NNW)    
Max Wind Speed 22 mph    
Max Gust Speed 30 mph    
Visibility 10 miles    
Events      
Averages and records for this station are not official NWS values.
T = Trace of Precipitation, MM = Missing Value Source: NWS Daily Summary

Daily Weather History Graph

Daily Weather History Graph

Search for Another Location

Airport or City:

Trip Planner

Search our weather history database for the weather conditions in past years. The results will help you decide how hot, cold, wet, or windy it might be!

Date:

Astronomy

Oct. 09, 2012 Rise Set
Actual Time 7:41 AM CDT 7:10 PM CDT
Civil Twilight 7:15 AM CDT 7:36 PM CDT
Nautical Twilight 6:45 AM CDT 8:05 PM CDT
Astronomical Twilight 6:15 AM CDT 8:35 PM CDT
Moon 1:29 AM CDT (10/9) 3:29 PM CDT (10/9)
Length of Visible Light 12h 20m
Length of Day
11h 29m
Last Quarter, 36% of the Moon is Illuminated
Oct 9
Last Quarter
Oct 15
New
Oct 21
First Quarter
Oct 29
Full
Nov 6
Last Quarter

Hourly Weather History & Observations

Time (CDT) Temp. Windchill Dew Point Humidity Pressure Visibility Wind Dir Wind Speed Gust Speed Precip Events Conditions
12:53 AM 52.0 °F - 37.0 °F 57% 29.87 in 10.0 mi South 18.4 mph 27.6 mph N/A   Clear
1:53 AM 52.0 °F - 37.9 °F 59% 29.85 in 10.0 mi South 21.9 mph 29.9 mph N/A   Clear
2:53 AM 51.8 °F - 39.2 °F 62% 29.87 in 10.0 mi South 18.4 mph - N/A   Clear
3:53 AM 50.0 °F - 41.0 °F 71% 29.82 in 10.0 mi South 18.4 mph - N/A   Clear
4:53 AM 48.9 °F - 42.1 °F 77% 29.81 in 10.0 mi South 13.8 mph 20.7 mph N/A   Clear
5:53 AM 48.2 °F - 42.8 °F 82% 29.83 in 10.0 mi South 16.1 mph - N/A   Clear
6:53 AM 46.9 °F - 42.1 °F 83% 29.80 in 10.0 mi South 16.1 mph - N/A   Clear
7:53 AM 46.0 °F 39.6 °F 42.1 °F 86% 29.81 in 10.0 mi SSW 15.0 mph - N/A   Clear
8:53 AM 48.9 °F - 43.0 °F 80% 29.82 in 10.0 mi SSW 12.7 mph - N/A   Clear
9:53 AM 55.9 °F - 44.1 °F 64% 29.83 in 10.0 mi SW 15.0 mph - N/A   Clear
10:53 AM 64.9 °F - 37.9 °F 37% 29.83 in 10.0 mi WNW 9.2 mph 17.3 mph N/A   Clear
11:53 AM 71.1 °F - 32.0 °F 24% 29.82 in 10.0 mi NW 12.7 mph - N/A   Clear
12:53 PM 70.0 °F - 34.0 °F 27% 29.83 in 10.0 mi NNW 16.1 mph 23.0 mph N/A   Clear
1:53 PM 71.1 °F - 39.0 °F 31% 29.84 in 10.0 mi North 17.3 mph - N/A   Clear
2:53 PM 73.9 °F - 41.0 °F 30% 29.85 in 10.0 mi North 17.3 mph 25.3 mph N/A   Clear
3:53 PM 73.9 °F - 42.1 °F 32% 29.88 in 10.0 mi North 19.6 mph 25.3 mph N/A   Clear
4:53 PM 71.1 °F - 41.0 °F 34% 29.91 in 10.0 mi North 16.1 mph 26.5 mph N/A   Clear
5:53 PM 69.1 °F - 39.9 °F 35% 29.94 in 10.0 mi North 16.1 mph 21.9 mph N/A   Clear
6:53 PM 64.0 °F - 39.0 °F 40% 29.98 in 10.0 mi NNE 12.7 mph 21.9 mph N/A   Clear
7:53 PM 59.0 °F - 39.9 °F 49% 30.02 in 10.0 mi NNE 11.5 mph - N/A   Clear
8:53 PM 55.9 °F - 41.0 °F 57% 30.06 in 10.0 mi NNE 10.4 mph - N/A   Clear
9:53 PM 53.1 °F - 41.0 °F 64% 30.09 in 10.0 mi NNE 10.4 mph - N/A   Clear
10:53 PM 50.0 °F - 39.9 °F 68% 30.12 in 10.0 mi NNE 11.5 mph - N/A   Clear
11:53 PM 48.0 °F - 39.9 °F 74% 30.14 in 10.0 mi NE 6.9 mph - N/A   Clear